Albuquerque, NM

11:12 AM MDT on October 20, 2019 (GMT -0600)
Albuquerque International Sunport

Weather History for KABQ - September, 2019

Change the Weather History Date:

Thursday, September 19, 2019

  Actual Average Record
Temperature  
Mean Temperature 72 °F 68 °F  
Max Temperature 86 °F 80 °F 93 °F (1956)
Min Temperature 58 °F 57 °F 34 °F (1912)
Degree Days  
Heating Degree Days 0 1  
Month to date heating degree days 0 5  
Since 1 July heating degree days 0 5  
Cooling Degree Days 7 4  
Month to date cooling degree days 211 127  
Year to date cooling degree days 1475 1284  
Growing Degree Days 22 (Base 50)    
Moisture  
Dew Point 42 °F    
Average Humidity 34    
Maximum Humidity 49    
Minimum Humidity 19    
Precipitation  
Precipitation T in 0.04 in 0.75 in (2004)
Month to date precipitation 0.44 0.68  
Year to date precipitation 5.89 6.96  
Snow  
Snow 0.00 in - - ()
Month to date snowfall 0.0  
Since 1 July snowfall 0.0  
Since 1 September snowfall 0.0  
Snow Depth 0.00 in    
Sea Level Pressure  
Sea Level Pressure 29.84 in    
Wind  
Wind Speed 6 mph (NW)    
Max Wind Speed 24 mph    
Max Gust Speed 28 mph    
Visibility 10 miles    
Events Rain , Thunderstorm    
T = Trace of Precipitation, MM = Missing Value Source: NWS Daily Summary

Daily Weather History Graph

Daily Weather History Graph

Search for Another Location

Airport or City:

Astronomy

Sep. 19, 2019 Rise Set
Actual Time 6:52 AM MDT 7:07 PM MDT
Civil Twilight 6:26 AM MDT 7:33 PM MDT
Nautical Twilight 5:57 AM MDT 8:02 PM MDT
Astronomical Twilight 5:27 AM MDT 8:32 PM MDT
Moon 10:30 PM MDT (9/19) 11:47 AM MDT (9/19)
Length of Visible Light 13h 06m
Length of Day
12h 15m
Waning Gibbous, 74% of the Moon is Illuminated
Sep 19
Waning Gibbous
Sep 21
Last Quarter
Sep 28
New
Oct 5
First Quarter
Oct 13
Full

Hourly Weather History & Observations

Time (MDT) Temp. Dew Point Humidity Pressure Visibility Wind Dir Wind Speed Gust Speed Precip Events Conditions
12:52 AM 68.0 °F 37.9 °F 33% 29.87 in 10.0 mi NNE 5.8 mph - N/A   Clear
1:52 AM 66.9 °F 39.0 °F 36% 29.86 in 10.0 mi NE 4.6 mph - N/A   Clear
2:52 AM 64.0 °F 45.0 °F 50% 29.86 in 10.0 mi NW 3.5 mph - N/A   Partly Cloudy
3:52 AM 63.0 °F 41.0 °F 45% 29.87 in 10.0 mi North 9.2 mph - N/A   Partly Cloudy
4:52 AM 61.0 °F 39.9 °F 46% 29.87 in 10.0 mi NNE 4.6 mph - N/A   Partly Cloudy
5:52 AM 61.0 °F 41.0 °F 48% 29.87 in 10.0 mi NE 4.6 mph - N/A   Partly Cloudy
6:52 AM 61.0 °F 41.0 °F 48% 29.89 in 10.0 mi WNW 4.6 mph - N/A   Scattered Clouds
7:52 AM 61.0 °F 39.9 °F 46% 29.91 in 10.0 mi North 10.4 mph - N/A   Scattered Clouds
8:52 AM 66.9 °F 39.9 °F 37% 29.91 in 10.0 mi NE 4.6 mph - N/A   Scattered Clouds
9:52 AM 71.1 °F 42.1 °F 35% 29.91 in 10.0 mi West 4.6 mph - N/A   Partly Cloudy
10:52 AM 75.9 °F 41.0 °F 29% 29.89 in 10.0 mi Calm Calm - N/A   Partly Cloudy
11:52 AM 80.1 °F 42.1 °F 26% 29.86 in 10.0 mi Calm Calm - N/A   Scattered Clouds
12:52 PM 82.0 °F 39.9 °F 22% 29.83 in 10.0 mi Variable 3.5 mph - N/A   Partly Cloudy
1:52 PM 82.9 °F 37.9 °F 20% 29.80 in 10.0 mi Variable 4.6 mph - N/A   Partly Cloudy
2:52 PM 84.0 °F 37.0 °F 19% 29.78 in 10.0 mi Calm Calm - N/A   Partly Cloudy
3:52 PM 84.9 °F 37.0 °F 18% 29.74 in 10.0 mi SW 9.2 mph 18.4 mph N/A   Scattered Clouds
4:52 PM 82.9 °F 37.9 °F 20% 29.75 in 10.0 mi SW 11.5 mph - N/A   Mostly Cloudy
5:52 PM 84.0 °F 39.0 °F 20% 29.72 in 10.0 mi WSW 10.4 mph - N/A   Mostly Cloudy
6:19 PM 80.1 °F 42.1 °F 26% 29.97 in 10.0 mi WNW 17.3 mph - N/A   Mostly Cloudy
6:28 PM 78.1 °F 41.0 °F 27% 29.97 in 10.0 mi WNW 16.1 mph - N/A Thunderstorm Thunderstorm
6:41 PM 77.0 °F 42.1 °F 29% 30.00 in 10.0 mi West 13.8 mph - N/A   Mostly Cloudy
6:52 PM 73.9 °F 51.1 °F 45% 29.79 in 10.0 mi WSW 15.0 mph 28.8 mph 0.00 in Rain Light Rain
6:59 PM 73.0 °F 51.1 °F 46% 30.00 in 10.0 mi SW 10.4 mph 19.6 mph 0.00 in Rain Light Rain
7:52 PM 73.9 °F 46.0 °F 37% 29.80 in 10.0 mi ESE 5.8 mph - 0.00 in   Scattered Clouds
8:52 PM 72.0 °F 46.0 °F 40% 29.79 in 10.0 mi South 5.8 mph - N/A   Partly Cloudy
9:52 PM 69.1 °F 48.0 °F 47% 29.80 in 10.0 mi East 4.6 mph - N/A   Mostly Cloudy
10:52 PM 70.0 °F 48.0 °F 46% 29.77 in 10.0 mi SSW 4.6 mph - N/A   Scattered Clouds
11:52 PM 68.0 °F 48.0 °F 49% 29.76 in 10.0 mi East 3.5 mph - N/A   Scattered Clouds